Weather in Yekaterinburg

Russia / Sverdlovsk Oblast     56˚50′16″N   60˚35′50″E
temp.,
°C
wind,
m/s
gust,
m/s
humid.,
%
clouds,
%
prec.,
mm/h
press.,
hPa
HPBL,
m
2 december, wed
wed223:00−11˚s127858 0.0 104921
02:00−11˚s127538 0.0 104821
05:00−12˚s127520 0.0 104721
08:00−12˚ssw127430 0.0 104621
11:00−10˚wsw126625 0.0 104559
14:00−8˚w246341 0.0 1044215
17:00−11˚w237921 0.0 104344
20:00−12˚w27872 0.0 1042155
3 december, thu
thu323:00−12˚w378832 0.0 1042158
02:00−12˚w379090 0.0 1041178
05:00−12˚wnw398986 0.0 1041210
08:00−13˚wnw388879 0.0 1041201
11:00−11˚wnw378040 0.0 1041237
14:00−9˚wnw36750 0.0 1040251
17:00−11˚wnw38860 0.0 1040246
20:00−11˚wnw49890 0.0 1040258
4 december, fri
fri423:00−12˚wnw49910 0.0 1040263
02:00−12˚wnw489338 0.0 1040240
05:00−12˚wnw489443 0.0 1040223
08:00−12˚wnw489470 0.0 1040242
11:00−12˚wnw379075 0.0 1041209
14:00−10˚wnw368447 0.0 1041220
17:00−11˚wnw369425 0.0 1041166
20:00−12˚w24954 0.0 104298
5 december, sat
sat523:00−12˚w24946 0.0 104196
02:00−12˚w25940 0.0 1042108
05:00−12˚w35920 0.0 1041125
08:00−12˚w24930 0.0 1041102
11:00−10˚w25840 0.0 1042146
14:00−8˚w25740 0.0 1041208
17:00−11˚w36850 0.0 1041144
20:00−11˚w37830 0.0 1041173
6 december, sun
sun623:00−11˚w37770 0.0 1041162
02:00−11˚wnw48690 0.0 1041175
05:00−12˚w48690 0.0 1040193
08:00−12˚wnw49690 0.0 1040211
11:00−11˚wnw49650 0.0 1040235
14:00−9˚wnw48620 0.0 1039265
17:00−10˚w411710 0.0 1037281
20:00−10˚wnw511720 0.0 1037311